STATE CAMP HILL HUMPTULIPS WA US WA DOT current weather conditions

sailwx.info

Wind from 339 at 1 knots

Air temperature 6.5° C
Visibility: greater than 1.1 NM
Dewpoint 6.4° C

Last reported at 2020-Jan-21 05:01 UTC.
Time now 2020-Jan-21 05:59 UTC

Location: N 47°08' W 123°54'.
View on Google Maps.

See reports from other nearby stations

  
Tides and Currents Weather Stations Pressure Air Temp Water Temp Dewpoint Dewpoint Depression Visibility Wind Speed Wind Dir Waves Ship Positions
date/time (UTC)wind fromknots sea level pressurealtimeterstation pressurevisibilityair tempwater tempwave heightnotes
2020-Jan-21 05:01 339 1 1.1 6.5
2020-Jan-21 04:41 338 1 gusting 2 1.1 6.6
2020-Jan-21 04:31 337 1 gusting 3 1.1 6.6
2020-Jan-21 04:24 330 1 gusting 3 1.1 6.6
2020-Jan-21 04:11 328 2 gusting 3 1.1 6.6
2020-Jan-21 04:01 342 1 gusting 2 1.1 6.7
2020-Jan-21 03:52 329 1 gusting 2 1.1 6.7
2020-Jan-21 03:41 1.1 6.8
2020-Jan-21 03:31 343 1 gusting 3 1.1 6.8
2020-Jan-21 03:21 340 1 gusting 2 1.1 6.8
2020-Jan-21 03:11 332 1 gusting 3 1.1 6.8
2020-Jan-21 02:51 339 1 gusting 3 1.1 6.8
2020-Jan-21 02:31 1.1 6.8
2020-Jan-21 02:11 334 1 gusting 2 1.1 7.0
2020-Jan-21 02:01 327 1 gusting 3 1.1 7.0
2020-Jan-21 01:56 323 1 gusting 3 1.1 7.0
2020-Jan-21 01:43 329 1 gusting 3 1.1 7.1
2020-Jan-21 01:31 336 1 gusting 2 1.1 7.2
2020-Jan-21 01:23 345 1 gusting 4 7.3
2020-Jan-21 01:11 344 1 gusting 2 1.1 7.4
2020-Jan-21 01:02 352 1 gusting 2 1.1 7.5
2020-Jan-21 00:52 335 1 gusting 3 1.1 7.7
2020-Jan-21 00:41 339 1 gusting 2 1.1 7.8
2020-Jan-21 00:11 337 1 gusting 3 1.1 8.0
2020-Jan-21 00:01 337 1 gusting 3 1.1 8.1
2020-Jan-20 23:52 350 1 gusting 3 1.1 8.1
2020-Jan-20 23:33 351 1 gusting 3 1.1 8.0
2020-Jan-20 23:11 336 1 gusting 2 1.1 8.1
2020-Jan-20 23:01 353 0 gusting 3 1.1 8.2
2020-Jan-20 22:52 334 1 gusting 3 1.1 8.2
2020-Jan-20 22:41 337 1 gusting 5 1.1 8.1
2020-Jan-20 22:31 347 1 gusting 3 1.1 8.2
2020-Jan-20 22:21 342 1 gusting 3 1.1 8.2
2020-Jan-20 22:11 343 1 gusting 4 1.1 8.1
2020-Jan-20 22:01 331 1 gusting 3 1.1 8.1
2020-Jan-20 21:51 340 1 gusting 2 1.1 8.1
2020-Jan-20 21:42 1.1 8.2
2020-Jan-20 21:21 333 2 gusting 4 1.1 8.1
2020-Jan-20 21:11 1.1 8.1
2020-Jan-20 21:02 316 1 gusting 1 1.1 8.0
2020-Jan-20 20:52 327 1 gusting 2 1.1 8.1
2020-Jan-20 20:41 317 1 gusting 3 1.1
2020-Jan-20 20:31 350 1 gusting 2 1.1 8.1
2020-Jan-20 20:22 347 1 gusting 3 1.1 8.1
2020-Jan-20 20:01 1.1 8.0
2020-Jan-20 19:51 309 1 gusting 2 1.1 8.2
2020-Jan-20 19:42 1.1 8.2
2020-Jan-20 19:32 327 1 1.1 8.2
2020-Jan-20 19:22 1.1 8.0
2020-Jan-20 19:11
2020-Jan-20 19:02 338 1 gusting 2 1.1 8.1
2020-Jan-20 18:51 357 1 gusting 3 1.1 8.1
2020-Jan-20 18:42 339 1 gusting 3 1.1 8.1
2020-Jan-20 18:32 328 1 gusting 1 1.1 8.1
2020-Jan-20 18:21 1.1 8.2
2020-Jan-20 18:11 344 1 gusting 2 1.1 8.2
2020-Jan-20 18:01 333 1 1.1 8.0
2020-Jan-20 17:51 348 0 gusting 3 1.1 7.9
2020-Jan-20 17:41 344 1 gusting 2 1.1 7.8
2020-Jan-20 17:32 338 1 gusting 3 1.1 7.7
2020-Jan-20 17:21 344 1 gusting 2 1.1 7.5
2020-Jan-20 17:12 1.1 7.5
2020-Jan-20 17:01 1.1 7.4
2020-Jan-20 16:51 1.1 7.4
2020-Jan-20 16:41 1.1 7.3
2020-Jan-20 16:31 1.1 7.3
2020-Jan-20 16:21 1.1 7.3
2020-Jan-20 16:11 1.1 7.2
2020-Jan-20 16:04 1.1 7.2
2020-Jan-20 15:51 1.1 7.2
2020-Jan-20 15:41 1.1 7.2
2020-Jan-20 15:31 333 1 0.9 7.2
2020-Jan-20 15:21 1.1 7.2
2020-Jan-20 15:11 1.1 7.1
2020-Jan-20 15:02 339 1 1.1 7.1
2020-Jan-20 14:53 1.1 7.1
2020-Jan-20 14:41 1.1 7.2
2020-Jan-20 14:32 1.1 7.2
2020-Jan-20 14:21 1.1 7.2
2020-Jan-20 14:12 335 1 1.1 7.2
2020-Jan-20 14:01 1.1 7.2
2020-Jan-20 13:51 1.1 7.2
2020-Jan-20 13:41 1.1 7.2
2020-Jan-20 13:31 1.1 7.2
2020-Jan-20 13:21 1.1 7.2
2020-Jan-20 13:11 1.0 7.2
2020-Jan-20 13:01 1.1 7.2
2020-Jan-20 12:51 1.1 7.2
2020-Jan-20 12:44 1.1 7.2
2020-Jan-20 12:34 1.1 7.2
2020-Jan-20 12:21 1.1 7.2
2020-Jan-20 12:11 1.1 7.2
2020-Jan-20 12:02 036 1 gusting 5 1.1 7.2
2020-Jan-20 11:51 1.1 7.2
2020-Jan-20 11:41 338 1 gusting 2 1.1 7.2
2020-Jan-20 11:31 341 1 gusting 2 1.1 7.2
2020-Jan-20 11:21 1.1
2020-Jan-20 11:11 326 0 1.1 7.3
2020-Jan-20 11:01 1.1 7.3
2020-Jan-20 10:51 1.1 7.3
2020-Jan-20 10:41 337 1 gusting 3 1.1 7.3
2020-Jan-20 10:31 341 1 gusting 2
2020-Jan-20 10:21 323 1 gusting 2 1.1 7.3
2020-Jan-20 10:11 1.1 7.3
2020-Jan-20 10:01 351 1 gusting 2 1.1 7.3
2020-Jan-20 09:51 1.1 7.3
2020-Jan-20 09:41 358 1 gusting 1 0.9 7.4
2020-Jan-20 09:31 321 1 1.1 7.5
2020-Jan-20 09:21 1.1 7.5
2020-Jan-20 08:51 1.1 7.4
2020-Jan-20 08:21 342 1 gusting 3 1.1 7.4
2020-Jan-20 08:12 1.1 7.4
2020-Jan-20 08:02 340 1 gusting 2 1.1
2020-Jan-20 07:52 333 1 gusting 2 1.1 7.4
2020-Jan-20 07:41 1.1 7.5
2020-Jan-20 07:32 319 1 gusting 3 1.1 7.5
2020-Jan-20 07:01 326 1 gusting 2 1.1 7.5
2020-Jan-20 06:51 309 1 gusting 2 1.1 7.6
2020-Jan-20 06:41 325 1 gusting 2 1.1 7.5
2020-Jan-20 06:31 318 1 gusting 3 1.1 7.6
2020-Jan-20 06:11 302 0 gusting 1 1.1 7.7
2020-Jan-20 05:51 342 1 gusting 3 1.1 7.7
2020-Jan-20 05:41 326 1 gusting 3 1.1 7.8
2020-Jan-20 05:22 315 1 gusting 2 1.1 7.8
2020-Jan-20 05:11 309 1 gusting 3 1.1 7.9
2020-Jan-20 05:01 333 1 gusting 2 1.1 7.9
2020-Jan-20 04:51 335 1 gusting 4 1.1 7.8
2020-Jan-20 04:42 335 2 gusting 4 1.1 7.8
2020-Jan-20 04:31 340 2 gusting 3 1.1 7.7
2020-Jan-20 04:21 326 1 gusting 2 1.1 7.7
2020-Jan-20 04:12 350 1 gusting 2 1.1 7.8
2020-Jan-20 04:01 349 1 gusting 3 1.1 7.8
2020-Jan-20 03:52 335 1 gusting 3 1.1 7.9
2020-Jan-20 03:43 339 1 gusting 2 1.1 7.9
2020-Jan-20 03:31 312 1 gusting 3 1.1 8.0
2020-Jan-20 03:11 335 1 gusting 2 1.1 8.2
2020-Jan-20 02:51 348 2 gusting 5 8.2
2020-Jan-20 02:42 335 1 gusting 3 1.1 8.2
2020-Jan-20 02:31 329 1 gusting 2
2020-Jan-20 02:21 333 1 gusting 3 1.1 8.3
2020-Jan-20 02:02 336 1 gusting 4 1.1 8.5
2020-Jan-20 01:51 329 1 gusting 3 1.1 8.6
2020-Jan-20 01:41 336 1 gusting 2 1.1 8.7
2020-Jan-20 01:32 318 1 gusting 2 1.1 8.8
2020-Jan-20 01:21 337 1 gusting 1 1.1 9.0
2020-Jan-20 01:11 349 1 1.1 9.1
2020-Jan-20 01:01 1.1 9.2
2020-Jan-20 00:51 1.1 9.3
2020-Jan-20 00:41 1.1 9.4
2020-Jan-20 00:31 1.1 9.5
2020-Jan-20 00:21 1.1 9.6
2020-Jan-20 00:11 337 1 gusting 2 1.1 9.7
2020-Jan-20 00:01 345 1 gusting 3 1.1 9.7
2020-Jan-19 23:42 348 1 gusting 3 1.1 9.9
2020-Jan-19 23:31 341 1 gusting 4 1.1 9.9
2020-Jan-19 23:22 342 1 gusting 3 1.1
2020-Jan-19 23:12
2020-Jan-19 23:01 346 1 gusting 4 1.1 9.9
2020-Jan-19 22:51 354 1 gusting 3 1.1 9.9
2020-Jan-19 22:32 004 1 gusting 3 1.1 9.8
2020-Jan-19 22:11 334 1 gusting 4
2020-Jan-19 22:01 338 1 gusting 7 1.1 9.8
2020-Jan-19 21:52 348 1 gusting 6 1.1 9.8
2020-Jan-19 21:42 354 2 gusting 6 1.1 9.7
2020-Jan-19 21:32 354 1 gusting 4 1.1 9.6
2020-Jan-19 21:22 355 1 gusting 4 1.1 9.6
2020-Jan-19 21:11 342 2 gusting 4 1.1 9.4
2020-Jan-19 20:52 351 1 gusting 4 1.1 9.3
2020-Jan-19 20:41 331 2 gusting 4 1.1 9.2
2020-Jan-19 20:32
2020-Jan-19 20:21 331 1 gusting 8 1.1 9.0
2020-Jan-19 20:11 337 2 gusting 7 1.1 9.1
2020-Jan-19 20:02 203 1 gusting 7 1.1 8.9
2020-Jan-19 19:51 329 1 gusting 4 1.1 9.0
2020-Jan-19 19:41 011 1 gusting 4 1.1 8.9
2020-Jan-19 19:31 329 2 gusting 4 1.1 8.8
2020-Jan-19 19:22 347 1 gusting 3 1.1 8.8
2020-Jan-19 19:11 359 2 gusting 5 0.9 8.8
2020-Jan-19 19:01 0.8 8.7
2020-Jan-19 18:54 332 1 gusting 3 0.8 8.7
2020-Jan-19 18:31 339 1 gusting 4 1.0 8.5
2020-Jan-19 18:23 302 1 gusting 3 1.1 8.5
2020-Jan-19 18:11 335 2 gusting 3 0.9 8.3
2020-Jan-19 18:01 315 1 gusting 4 1.1 8.2
2020-Jan-19 17:41 303 1 gusting 4 0.8 8.2
2020-Jan-19 17:32 320 1 gusting 3 0.9 8.0
2020-Jan-19 17:21 338 1 gusting 5 0.9 7.9
2020-Jan-19 17:12 326 1 gusting 2 0.9 7.8
2020-Jan-19 17:01 337 2 gusting 3 1.0 7.8
2020-Jan-19 16:52 328 1 gusting 3 7.8
2020-Jan-19 16:42 333 1 gusting 3 0.8 7.7
2020-Jan-19 16:22 319 1 gusting 2 1.1 7.6
2020-Jan-19 16:11 1.1
2020-Jan-19 16:02 332 1 gusting 2 1.1 7.5
2020-Jan-19 15:51 295 1 gusting 4 1.1 7.5
2020-Jan-19 15:41 347 1 gusting 4 1.1 7.5
2020-Jan-19 15:32 333 1 gusting 3 1.1 7.5
2020-Jan-19 15:22 334 2 gusting 3 1.0 7.5
2020-Jan-19 15:12 1.0 7.4
2020-Jan-19 15:02 332 2 gusting 3 1.0 7.4
2020-Jan-19 14:51 343 1 gusting 4 1.1 7.4
2020-Jan-19 14:31 333 1 gusting 3 1.0 7.3
2020-Jan-19 14:21 330 1 gusting 3 1.1 7.4
2020-Jan-19 14:02 329 1 gusting 3 1.0 7.3
2020-Jan-19 13:51 336 2 gusting 3 0.9 7.3
2020-Jan-19 13:41 322 1 gusting 3 0.7 7.2
2020-Jan-19 13:31 337 1 gusting 3 0.8 7.2
2020-Jan-19 13:15 332 1 gusting 3 1.0 7.2
2020-Jan-19 13:02 332 1 gusting 3 1.1 7.2
2020-Jan-19 12:42 334 1 gusting 3 1.1
2020-Jan-19 12:31 341 1 gusting 3 1.1 7.1
2020-Jan-19 12:22 331 1 gusting 3 1.0 7.1
2020-Jan-19 12:12 324 1 gusting 3 1.1 7.0
2020-Jan-19 12:02 320 1 gusting 4 1.1 7.0
2020-Jan-19 11:51 339 1 gusting 3 1.1 6.9
2020-Jan-19 11:42 346 1 gusting 3 1.1 6.9
2020-Jan-19 11:32 337 1 gusting 3 1.1 6.9
2020-Jan-19 11:21 354 1 gusting 3 1.1 6.9
2020-Jan-19 11:11 338 1 gusting 3 1.1 6.9
2020-Jan-19 11:01 336 1 gusting 3 1.1 6.9
2020-Jan-19 10:51 325 1 gusting 3 1.1 6.8
2020-Jan-19 10:41 341 1 gusting 4 1.1 6.8
2020-Jan-19 10:31 340 1 gusting 4 1.1 6.8
2020-Jan-19 10:21 320 1 gusting 3 1.1 6.8
2020-Jan-19 10:11 336 1 gusting 3 1.1 6.7
2020-Jan-19 10:01 329 1 gusting 3 1.1 6.7
2020-Jan-19 09:52 334 1 gusting 2 1.1 6.7
2020-Jan-19 09:42 338 1 gusting 3 1.1 6.6
2020-Jan-19 09:31 327 1 gusting 3 1.1 6.6
2020-Jan-19 09:21 339 1 gusting 3 1.1 6.6
2020-Jan-19 09:11 331 1 gusting 3 1.1 6.6
2020-Jan-19 09:01 337 1 gusting 3 1.1 6.5
2020-Jan-19 08:51 333 1 gusting 2 1.1 6.5
2020-Jan-19 08:41 338 1 gusting 3 1.1 6.5
2020-Jan-19 08:31 341 2 gusting 3 1.1 6.5
2020-Jan-19 08:21 333 1 gusting 3 1.1 6.5
2020-Jan-19 08:12 340 1 gusting 3 1.1 6.5
2020-Jan-19 08:02 343 1 gusting 3 1.1 6.5
2020-Jan-19 07:52 344 1 gusting 3 1.1 6.5
2020-Jan-19 07:42 338 2 gusting 5 1.1 6.5
2020-Jan-19 07:31 333 1 gusting 3 1.1 6.5
2020-Jan-19 07:21 338 1 gusting 3 1.1 6.4
2020-Jan-19 07:11 336 1 gusting 3 6.4
2020-Jan-19 07:01 335 1 gusting 4 1.1 6.4
2020-Jan-19 06:51 351 1 gusting 3 1.1 6.4
2020-Jan-19 06:34 342 1 gusting 3 1.1 6.4
2020-Jan-19 06:22 340 1 gusting 3 1.1 6.4
2020-Jan-19 06:11 340 1 gusting 3 1.1 6.4
2020-Jan-19 06:02 343 2 gusting 3 1.1 6.4
2020-Jan-19 05:51 328 1 gusting 2 1.1 6.4
2020-Jan-19 05:31 344 2 gusting 3 0.9 6.5
2020-Jan-19 05:21 339 2 gusting 3 0.8 6.5
2020-Jan-19 05:14 338 1 gusting 3 0.8 6.5
2020-Jan-19 05:01 334 1 gusting 3 0.9 6.4